Wind_Speed
5 5 5 5 4 5 5 5 5 5 5 5 6 8 9 10 10 11 11 10 9 9 8 7 7 7 7 7 7 6 5 5 4 4 4 3 3 4 4 5 5 6 6 6 6 7 7 7 6
7 6 7 7 6 7 6 6 5 5 5 5 6 8 9 10 11 11 12 11 10 9 8 7 7 7 7 7 7 7 6 6 5 5 5 4 4 4 4 4 5 5 6 6 6 6 6 5 5
9 9 9 9 9 8 7 7 8 7 6 5 6 8 10 11 13 12 12 12 11 10 10 9 8 8 7 7 8 7 7 6 6 6 6 6 6 5 6 6 6 6 6 6 6 6 6 5 4
12 12 12 12 11 10 10 10 10 10 8 7 7 8 10 12 13 13 13 13 13 12 12 10 9 9 8 8 8 8 7 8 8 8 8 8 8 7 7 8 7 7 7 7 7 6 6 6 5
15 14 14 14 13 12 12 12 11 12 11 9 9 9 12 14 14 13 14 14 14 14 13 12 11 10 10 10 9 9 9 9 10 10 10 10 10 10 9 10 10 10 10 9 9 8 8 7 6
18 17 16 15 14 14 14 15 14 13 12 11 10 12 13 15 14 14 15 15 15 15 15 14 13 12 12 11 11 11 11 11 11 11 11 11 11 11 11 12 12 12 12 11 11 10 10 10 9
20 19 17 16 16 17 17 16 15 14 14 13 12 12 13 15 15 15 16 16 16 16 16 15 15 14 13 13 13 13 13 13 13 13 13 13 13 13 13 13 14 14 14 13 13 13 13 12 12
22 21 19 18 18 20 20 19 17 16 15 14 14 13 14 15 17 18 18 18 18 17 17 16 15 15 15 15 16 16 15 16 15 15 15 15 15 15 15 15 15 16 16 16 16 16 16 16 15
24 22 20 20 20 22 23 22 20 19 17 16 15 14 15 16 18 18 19 19 19 19 18 18 17 17 17 18 18 18 18 19 18 18 17 17 16 17 17 18 18 18 19 19 19 19 19 19 18
25 23 21 22 22 23 24 24 23 21 19 19 17 16 16 17 18 19 20 21 22 21 20 19 19 19 20 20 20 20 20 21 21 20 20 19 19 19 19 20 20 21 21 21 21 21 22 21 21
25 23 22 22 24 24 25 26 25 24 22 21 20 19 17 17 18 20 21 22 22 22 21 21 20 21 22 22 22 23 22 22 22 22 22 21 21 21 21 21 22 22 22 22 23 24 24 24 23
24 22 22 22 24 24 25 26 26 25 24 24 23 22 21 21 21 22 21 21 21 21 22 22 23 23 24 24 25 24 24 24 25 25 24 24 23 23 24 23 24 24 25 24 24 25 25 26 26
21 20 21 22 23 24 24 25 26 25 25 25 24 24 24 23 23 23 21 21 21 21 22 23 22 22 22 24 25 26 27 26 27 27 27 27 26 26 27 27 27 27 27 25 24 25 25 25 26
18 17 18 20 22 23 24 24 25 25 26 26 26 25 25 25 25 24 23 22 23 23 23 23 23 23 24 25 25 25 27 28 27 27 28 29 29 29 28 29 28 27 25 25 25 25 25 25 27
14 14 16 19 20 21 23 23 23 24 25 25 25 25 25 26 26 25 24 24 25 24 24 23 24 25 26 25 25 26 26 25 26 27 28 29 29 29 28 29 29 28 27 26 26 26 26 26 28
12 12 14 16 17 18 20 20 20 21 22 23 23 24 25 27 25 25 25 25 25 24 24 24 25 26 27 27 27 28 29 28 28 28 28 29 29 30 29 30 30 29 28 28 27 26 27 28 28
10 11 12 13 14 15 17 17 17 19 20 21 22 24 26 26 26 26 26 26 25 25 25 26 27 28 28 28 29 30 30 30 30 30 30 30 29 28 29 30 30 30 29 28 28 28 28 28 29
10 11 12 13 13 13 14 16 16 17 19 20 22 23 24 25 25 24 25 25 25 25 25 26 27 28 29 29 30 30 31 31 32 32 31 31 31 30 31 31 31 31 30 30 30 30 30 29 29
11 12 12 12 11 12 13 15 16 18 19 20 21 22 23 23 24 23 22 23 24 25 26 27 28 29 30 31 31 32 32 32 33 33 33 33 33 34 33 33 32 33 32 32 32 32 32 31 31
10 11 11 12 12 13 13 14 15 17 18 19 21 21 22 24 24 22 22 23 24 26 28 29 31 32 32 33 33 33 33 34 34 34 35 35 35 35 35 35 34 34 34 34 34 34 34 33 33
10 11 12 12 13 13 13 14 16 17 17 18 19 19 20 21 22 22 22 24 25 26 28 29 31 32 33 34 34 34 34 35 35 35 35 35 35 35 36 36 36 36 36 36 36 36 35 34 34
10 11 11 11 11 12 12 13 13 14 14 15 15 17 18 19 20 20 22 24 25 27 28 29 30 31 32 33 34 34 35 35 36 36 36 36 36 36 36 36 36 37 37 37 37 37 36 35 35
10 10 10 11 11 10 10 11 11 12 13 14 14 15 16 17 17 19 21 22 24 25 27 29 30 31 32 33 34 34 34 35 36 36 36 36 36 36 36 36 36 36 37 37 37 37 37 36 36
10 10 9 10 11 10 10 11 11 12 12 12 14 15 16 16 17 19 20 21 23 25 26 27 29 30 31 32 32 33 33 34 34 35 36 36 37 37 36 36 37 37 37 38 38 38 38 38 37
8 9 9 9 9 9 9 10 10 10 11 12 14 15 16 16 17 18 19 21 23 24 25 26 27 28 30 31 31 32 33 34 35 36 36 37 37 37 37 37 37 38 38 39 39 40 39 39 39
7 8 9 8 8 7 8 8 9 9 11 13 14 15 16 17 18 19 21 22 23 24 26 27 28 28 29 30 31 32 33 34 35 36 36 37 37 38 39 39 39 39 39 40 40 41 41 41 41
7 6 7 6 6 6 7 8 9 10 12 14 15 16 18 19 20 21 23 24 25 26 27 27 28 29 30 31 32 33 34 34 35 36 36 37 37 38 38 40 40 41 41 41 42 42 42 42 42
6 6 6 6 7 7 7 8 10 12 13 15 17 18 20 21 22 24 25 26 27 28 28 29 29 30 31 32 32 33 33 35 35 35 36 36 37 38 38 39 40 41 41 42 42 43 44 44 44
5 6 6 6 7 8 8 9 11 13 15 17 18 21 22 23 24 25 27 28 29 29 30 30 31 31 32 32 33 33 34 35 35 35 35 35 36 36 37 38 38 39 40 41 41 43 44 44 44
6 6 6 7 7 8 9 10 12 15 16 18 20 22 24 25 26 27 28 29 30 31 32 32 32 32 33 33 34 34 35 35 35 35 36 36 36 37 37 37 37 38 38 39 39 40 42 43 44
Wind_Direction
342 330 322 319 307 307 304 307 320 339 352 7 5 1 352 347 345 342 339 338 337 337 330 326 327 328 330 334 336 337 339 341 340 341 345 350 356 0 0 1 358 355 355 359 1 3 6 13 21
326 315 306 304 295 291 297 296 292 310 326 343 345 349 344 343 338 332 331 332 332 331 324 317 320 321 322 324 324 323 322 322 319 317 316 315 314 316 320 323 327 332 333 335 340 342 345 350 358
314 306 297 296 290 285 285 286 288 297 307 318 335 338 334 335 332 326 326 329 328 325 319 310 309 311 312 312 312 312 308 305 303 301 300 299 297 296 297 301 305 309 311 312 316 319 320 325 327
304 299 293 291 286 282 277 283 286 285 301 309 323 328 326 326 324 323 323 324 324 321 317 310 302 302 302 302 301 301 297 293 291 289 289 287 287 285 287 290 294 296 298 296 295 296 297 299 301
298 294 291 290 286 280 275 273 277 281 288 296 305 315 319 322 320 322 324 325 322 316 311 310 302 301 300 296 293 292 288 285 283 281 281 281 281 280 280 281 284 286 286 286 284 284 283 280 279
293 291 287 283 277 272 267 271 273 276 284 287 296 305 313 316 317 320 323 323 318 312 309 307 304 301 299 295 289 285 283 281 279 279 279 279 280 280 278 278 280 281 282 281 279 276 276 274 272
288 287 283 277 266 263 264 269 269 274 279 285 293 299 307 311 311 314 316 317 315 310 307 304 301 297 294 288 284 282 278 277 275 275 276 277 278 278 278 278 278 281 280 278 275 272 269 269 267
285 282 277 269 258 257 263 264 266 270 277 283 290 295 301 304 307 310 310 310 308 305 303 301 296 289 286 282 278 275 271 269 270 271 270 271 273 274 275 276 276 277 279 277 272 270 267 265 263
281 277 273 265 256 254 259 260 264 268 272 276 282 290 295 300 305 308 306 305 301 297 294 292 288 286 281 278 275 270 268 267 267 266 266 268 271 272 273 275 276 276 276 276 273 269 269 265 263
278 274 268 262 256 252 254 257 261 263 266 271 278 286 294 298 302 304 303 301 298 295 291 287 283 282 280 276 272 267 268 268 266 266 268 269 269 271 273 276 276 277 277 275 274 272 268 265 263
276 273 268 262 258 254 251 255 259 261 264 271 279 285 289 293 296 298 299 296 294 291 287 283 281 281 281 276 274 270 268 267 267 266 267 268 268 269 271 272 272 275 277 276 274 275 271 265 263
276 272 266 260 259 257 252 252 257 261 266 271 277 283 288 289 290 295 297 296 293 292 291 284 278 279 281 274 274 273 270 269 266 264 263 265 267 267 268 268 269 271 272 273 271 273 273 269 267
275 269 264 258 256 255 252 252 256 260 265 269 277 283 286 289 291 292 295 296 298 294 292 289 284 283 284 282 280 276 274 269 265 265 264 264 264 265 267 266 267 267 269 273 273 270 271 269 265
274 267 261 257 254 253 253 254 257 259 264 270 276 282 286 288 289 289 290 294 296 295 292 290 287 286 284 282 282 283 280 273 272 269 268 267 266 267 269 269 268 269 270 273 275 271 270 268 266
269 263 261 259 256 254 255 257 259 262 265 271 278 282 284 287 289 290 292 293 295 293 292 291 288 288 287 287 286 286 290 287 284 279 277 275 271 269 269 269 267 269 271 273 275 271 268 269 268
264 263 259 260 257 255 257 260 263 267 271 276 281 284 287 288 289 290 291 293 292 290 291 291 289 288 288 288 290 289 289 289 288 284 281 281 277 273 273 274 271 271 273 272 274 271 270 270 267
264 263 261 262 262 258 260 265 269 276 279 283 287 290 294 292 291 289 289 291 290 289 291 290 291 290 289 288 288 288 287 287 288 287 284 283 282 280 279 278 274 273 273 273 273 271 269 268 265
268 267 264 263 266 268 269 273 281 287 288 290 292 294 297 296 293 288 287 288 289 291 291 292 293 293 292 291 291 291 289 289 289 288 285 285 284 281 279 278 276 273 272 272 271 270 268 266 263
274 275 270 269 275 276 276 282 287 293 294 292 292 293 296 297 296 291 290 291 292 294 295 295 295 296 296 296 296 294 293 291 290 287 285 283 282 280 279 277 275 274 273 271 270 268 267 265 263
278 278 279 279 285 282 281 287 294 300 297 294 297 298 298 297 295 294 293 294 294 295 297 297 297 297 297 297 298 296 294 292 290 288 286 284 282 280 278 276 274 273 271 270 268 267 266 263 262
283 282 284 287 291 293 289 294 300 304 303 300 300 299 300 300 296 295 294 294 296 296 296 296 297 297 298 299 299 298 296 294 292 290 288 285 283 280 277 276 274 272 270 269 267 265 264 260 259
284 288 286 289 296 303 300 304 308 310 311 311 309 308 306 304 300 298 296 297 297 298 298 299 299 299 300 300 299 298 297 295 293 291 289 286 284 281 279 276 275 273 270 269 268 265 263 259 256
292 295 294 295 300 307 311 312 318 318 318 317 318 318 316 312 307 303 303 303 303 302 302 302 301 301 301 301 300 299 297 295 293 292 290 288 286 283 280 277 275 273 270 268 266 265 263 259 255
298 301 304 305 304 307 312 313 317 320 323 321 321 322 322 319 314 311 310 310 309 308 306 305 304 303 303 302 301 300 298 296 294 292 291 288 286 283 281 278 276 272 269 266 265 263 261 259 255
302 312 315 310 311 311 314 319 322 323 324 324 324 325 326 325 323 321 321 320 318 315 313 311 309 308 307 306 304 303 301 298 296 294 291 289 286 283 281 279 276 272 268 265 263 262 260 257 255
311 318 319 317 317 321 325 329 334 335 333 332 332 333 333 333 333 333 332 329 326 322 319 316 313 312 310 309 307 305 303 301 299 297 293 290 286 283 281 279 276 273 269 266 263 261 258 256 253
316 322 326 327 327 328 336 341 342 341 341 339 339 340 340 340 340 339 337 333 330 327 324 320 318 316 315 312 310 308 306 304 303 300 296 293 289 286 283 280 277 274 270 266 263 260 257 254 252
310 320 327 337 340 337 340 342 344 343 342 342 343 345 346 346 345 342 340 337 334 332 329 326 323 321 319 317 315 313 311 310 308 305 301 298 294 290 286 282 279 275 271 266 262 259 256 253 251
305 319 330 337 338 337 339 343 344 344 343 344 347 349 349 348 346 344 343 340 338 336 333 331 329 327 325 323 321 318 316 314 312 309 305 302 298 296 291 286 282 277 272 267 263 259 255 252 249
304 312 319 326 333 336 340 345 343 344 346 347 349 350 349 348 346 345 343 342 340 339 337 335 333 330 329 327 325 322 321 318 316 313 310 306 303 299 294 288 284 279 273 267 263 258 254 251 248
Height
5917 5916 5916 5916 5916 5915 5913 5912 5911 5910 5910 5909 5909 5908 5908 5907 5908 5910 5907 5904 5904 5903 5902 5901 5900 5899 5899 5898 5898 5897 5897 5897 5897 5898 5898 5898 5898 5898 5898 5898 5898 5898 5899 5899 5899 5898 5898 5898 5898
5916 5916 5916 5916 5915 5913 5912 5911 5910 5909 5909 5908 5908 5907 5907 5906 5906 5906 5905 5904 5903 5902 5901 5900 5899 5898 5898 5897 5897 5896 5896 5896 5896 5896 5897 5897 5897 5897 5897 5897 5897 5897 5897 5897 5898 5898 5898 5898 5898
5915 5915 5915 5914 5913 5912 5911 5910 5909 5909 5908 5908 5907 5907 5906 5906 5905 5905 5904 5903 5902 5901 5900 5899 5898 5897 5896 5896 5895 5895 5895 5895 5895 5895 5895 5895 5895 5895 5895 5895 5895 5896 5896 5896 5896 5896 5896 5896 5897
5914 5914 5914 5913 5911 5910 5909 5909 5908 5907 5907 5907 5906 5906 5905 5905 5904 5903 5902 5901 5901 5900 5898 5897 5896 5895 5895 5894 5893 5893 5893 5893 5893 5893 5893 5893 5893 5893 5893 5893 5893 5894 5894 5894 5894 5894 5895 5895 5895
5912 5912 5912 5910 5909 5908 5907 5906 5906 5905 5905 5905 5905 5904 5903 5903 5902 5901 5900 5899 5899 5898 5896 5895 5894 5893 5893 5892 5892 5891 5891 5891 5891 5891 5891 5891 5891 5890 5891 5891 5891 5891 5891 5892 5892 5892 5892 5893 5893
5909 5909 5909 5907 5906 5905 5904 5904 5903 5903 5903 5903 5902 5902 5901 5901 5900 5899 5898 5897 5896 5895 5894 5893 5892 5891 5891 5890 5890 5889 5889 5889 5888 5888 5888 5888 5888 5888 5888 5888 5888 5888 5888 5889 5889 5890 5890 5891 5891
5906 5906 5905 5905 5903 5902 5901 5900 5900 5901 5900 5900 5900 5899 5898 5898 5897 5896 5896 5895 5894 5893 5892 5891 5890 5889 5889 5888 5887 5887 5886 5886 5886 5886 5886 5886 5886 5886 5885 5885 5885 5885 5885 5885 5886 5886 5887 5887 5888
5902 5903 5902 5901 5900 5898 5897 5897 5897 5897 5897 5898 5897 5896 5896 5895 5894 5894 5893 5892 5891 5890 5889 5888 5887 5886 5886 5885 5884 5884 5883 5883 5883 5882 5882 5882 5882 5882 5882 5882 5882 5882 5882 5882 5882 5883 5883 5884 5884
5897 5898 5897 5897 5896 5895 5893 5893 5893 5893 5894 5894 5893 5893 5893 5892 5891 5890 5890 5888 5888 5887 5885 5884 5883 5883 5882 5881 5880 5880 5879 5879 5879 5878 5878 5878 5879 5879 5879 5878 5878 5878 5878 5878 5878 5878 5879 5880 5880
5891 5892 5892 5892 5891 5890 5889 5889 5889 5890 5890 5889 5890 5890 5890 5889 5888 5887 5886 5885 5884 5883 5881 5880 5879 5878 5877 5877 5876 5875 5875 5874 5874 5874 5874 5874 5874 5874 5874 5874 5874 5874 5873 5873 5873 5873 5874 5874 5875
5885 5887 5887 5886 5885 5885 5885 5885 5884 5885 5886 5886 5886 5886 5886 5886 5885 5883 5882 5880 5879 5877 5876 5875 5874 5873 5872 5872 5871 5870 5870 5869 5869 5869 5869 5869 5869 5869 5869 5869 5869 5869 5868 5868 5868 5868 5868 5869 5870
5880 5880 5880 5880 5879 5880 5881 5881 5881 5881 5883 5883 5882 5882 5882 5881 5880 5879 5878 5876 5875 5873 5871 5870 5869 5868 5866 5866 5865 5864 5864 5863 5863 5862 5862 5863 5863 5863 5862 5863 5863 5863 5863 5862 5862 5862 5862 5863 5864
5874 5875 5874 5874 5875 5875 5876 5877 5877 5878 5878 5879 5879 5878 5878 5877 5876 5875 5874 5872 5870 5869 5867 5865 5864 5864 5862 5861 5859 5858 5857 5855 5855 5855 5856 5856 5856 5856 5856 5856 5856 5857 5857 5856 5856 5856 5856 5857 5857
5870 5870 5870 5870 5870 5871 5872 5873 5874 5874 5875 5875 5875 5875 5874 5873 5871 5870 5868 5867 5866 5865 5863 5861 5860 5859 5858 5856 5854 5852 5851 5850 5849 5849 5849 5849 5849 5849 5849 5849 5850 5850 5850 5850 5850 5849 5850 5850 5851
5867 5867 5867 5867 5867 5868 5869 5870 5871 5871 5872 5872 5871 5870 5869 5868 5866 5864 5862 5861 5860 5859 5858 5856 5855 5853 5852 5850 5848 5847 5846 5845 5844 5843 5843 5842 5842 5841 5841 5842 5842 5842 5843 5843 5843 5843 5843 5844 5844
5865 5865 5865 5865 5865 5865 5868 5868 5868 5868 5868 5868 5867 5866 5865 5863 5861 5859 5857 5856 5855 5853 5852 5851 5850 5849 5847 5845 5843 5842 5841 5840 5838 5837 5837 5836 5835 5834 5834 5835 5835 5835 5835 5836 5836 5837 5837 5837 5838
5864 5864 5864 5864 5863 5864 5865 5865 5865 5865 5865 5864 5863 5861 5859 5857 5855 5854 5852 5851 5849 5847 5846 5845 5844 5842 5841 5839 5838 5836 5835 5834 5832 5831 5830 5829 5828 5828 5828 5828 5827 5828 5828 5829 5829 5830 5830 5830 5831
5863 5863 5863 5863 5862 5863 5863 5863 5862 5862 5861 5860 5858 5856 5854 5852 5850 5848 5847 5845 5843 5842 5841 5840 5838 5836 5834 5833 5831 5830 5828 5827 5825 5824 5822 5822 5821 5821 5820 5820 5819 5820 5820 5820 5821 5821 5822 5822 5823
5863 5862 5862 5861 5861 5861 5861 5860 5859 5858 5857 5855 5854 5851 5850 5847 5845 5843 5842 5840 5839 5837 5835 5833 5831 5829 5827 5825 5823 5822 5820 5819 5817 5816 5815 5814 5813 5812 5812 5811 5811 5811 5811 5811 5812 5813 5814 5814 5815
5861 5861 5860 5860 5859 5859 5858 5858 5857 5855 5853 5851 5849 5847 5845 5843 5841 5839 5838 5836 5834 5831 5829 5827 5825 5822 5820 5818 5816 5813 5812 5810 5809 5807 5806 5805 5804 5803 5802 5802 5802 5802 5802 5802 5802 5803 5804 5805 5806
5860 5860 5859 5859 5858 5857 5856 5856 5854 5852 5850 5848 5845 5843 5841 5839 5837 5835 5833 5831 5829 5826 5824 5821 5819 5816 5813 5811 5808 5806 5803 5801 5800 5798 5797 5795 5794 5793 5793 5792 5792 5792 5792 5792 5793 5793 5794 5796 5797
5859 5858 5858 5857 5856 5855 5855 5853 5852 5849 5847 5845 5843 5841 5838 5835 5833 5831 5829 5827 5824 5821 5819 5816 5813 5810 5807 5804 5801 5798 5795 5793 5791 5789 5787 5786 5784 5783 5783 5782 5782 5781 5781 5782 5782 5783 5784 5786 5787
5859 5857 5856 5856 5855 5854 5853 5851 5850 5847 5845 5844 5841 5839 5836 5833 5831 5828 5826 5823 5819 5816 5813 5810 5807 5804 5800 5797 5794 5791 5788 5785 5782 5780 5778 5776 5774 5773 5772 5771 5771 5771 5771 5771 5771 5772 5774 5775 5777
5858 5857 5855 5854 5854 5853 5851 5850 5849 5846 5844 5842 5840 5837 5835 5831 5828 5826 5822 5819 5815 5812 5808 5805 5801 5798 5794 5791 5787 5783 5780 5777 5774 5771 5768 5766 5764 5762 5761 5760 5760 5760 5759 5760 5761 5761 5763 5765 5767
5857 5857 5855 5854 5852 5852 5850 5849 5848 5845 5843 5841 5839 5836 5832 5829 5826 5822 5819 5815 5811 5807 5803 5799 5796 5792 5788 5784 5780 5776 5772 5769 5765 5762 5759 5756 5754 5751 5750 5749 5748 5748 5748 5748 5749 5750 5751 5753 5755
5856 5855 5855 5853 5852 5851 5849 5847 5847 5844 5842 5839 5837 5834 5830 5826 5822 5818 5814 5810 5806 5802 5798 5794 5790 5785 5781 5776 5772 5768 5764 5760 5756 5752 5749 5746 5743 5740 5738 5737 5736 5735 5735 5736 5736 5738 5739 5741 5744
5855 5854 5853 5852 5851 5850 5848 5847 5845 5842 5840 5838 5835 5831 5827 5823 5818 5814 5810 5806 5801 5797 5792 5788 5783 5778 5773 5769 5764 5760 5755 5751 5746 5742 5738 5734 5731 5729 5726 5724 5723 5722 5722 5722 5723 5724 5726 5729 5731
5855 5853 5852 5851 5850 5848 5847 5845 5844 5841 5839 5836 5832 5828 5824 5819 5815 5810 5806 5801 5796 5792 5787 5781 5776 5771 5766 5761 5756 5751 5746 5741 5736 5732 5727 5723 5719 5716 5714 5711 5709 5708 5708 5708 5709 5710 5712 5715 5719
5854 5853 5851 5850 5849 5848 5846 5846 5842 5840 5837 5833 5829 5825 5820 5816 5811 5807 5802 5797 5792 5786 5781 5775 5770 5764 5759 5753 5748 5742 5737 5732 5726 5721 5717 5712 5708 5704 5701 5698 5696 5694 5693 5693 5694 5695 5698 5701 5704
5852 5851 5851 5850 5848 5846 5845 5846 5840 5837 5834 5830 5826 5822 5817 5813 5808 5803 5798 5792 5787 5781 5775 5769 5763 5757 5752 5746 5740 5735 5729 5723 5717 5712 5706 5701 5696 5692 5688 5684 5682 5680 5678 5678 5679 5681 5683 5686 5690